Regional Weather Roundup
Issued by NWS

Home | Current Version | Previous Version | Graphics & Text | Print | Product List | Glossary On
Versions: 1 2 3 4 5 6 7 8 9 10 11 12 13 14 15 16 17 18 19 20 21 22 23 24 25 26 27 28 29 30 31 32 33 34 35 36 37 38 39 40 41 42 43 44 45 46 47 48 49
000
ASUS45 KBOU 150907
RWRCO

WEATHER ROUNDUP FOR COLORADO
NATIONAL WEATHER SERVICE DENVER/BOULDER CO
300 AM MDT MON SEP 15 2014

NOTE: "FAIR" INDICATES FEW OR NO CLOUDS BELOW 12000 FEET WITH NO
SIGNIFICANT WEATHER AND/OR OBSTRUCTIONS TO VISIBILITY.

COZ001>005-013-030-031-151000-
...NORTHWEST COLORADO...

CITY           SKY/WX    TMP DP  RH WIND       PRES   REMARKS
CRAIG          CLEAR     45  40  82 CALM      30.25R
HAYDEN         CLEAR     52  36  54 E10       30.26S
MEEKER         CLEAR     49  39  68 E7        30.27S
MOUNT WERNER   NOT AVBL
STEAMBOAT SPGS CLEAR     49  36  61 CALM      30.30R
WALDEN         PTCLDY    36  30  80 SE6       30.36R
$$

COZ006>008-011-151000-
...WEST CENTRAL VALLEYS...

CITY           SKY/WX    TMP DP  RH WIND       PRES   REMARKS
GRAND JUNCTION PTCLDY    60  39  45 E6        30.13R
MONTROSE       CLEAR     56  41  57 SE9       30.22S
EAGLE          CLEAR     46  39  76 CALM      30.33R
RIFLE          CLEAR     51  39  63 E6        30.21R
DELTA          CLEAR     57  40  53 NE6       30.19R
NUCLA          CLEAR     54  41  62 E7        30.25S
$$

COZ017>023-064>068-151000-
...SOUTHWEST COLORADO...

CITY           SKY/WX    TMP DP  RH WIND       PRES   REMARKS
DURANGO        PTCLDY    54  41  61 E3        30.28S
CORTEZ         CLEAR     52  43  71 E7        30.22R
PAGOSA SPRINGS NOT AVBL
TELLURIDE      CLEAR     48  37  66 E7        30.43S
WOLF CREEK PAS CLEAR     41  41 100 SW12      30.62S
$$

COZ009-010-012-014-032>034-037-058>063-151000-
...CENTRAL COLORADO...

CITY           SKY/WX    TMP DP  RH WIND       PRES   REMARKS
ASPEN          CLEAR     47  34  60 S6        30.35S
BUENA VISTA    CLEAR     49  34  56 NW6       30.37S
COPPER MTN     CLEAR     46  27  46 W8G17     30.62S
BERTHOUD PASS  FAIR      37  36  93 NW15      30.64S
COTTONWOOD PAS CLEAR     55  30  38 W9        30.48S
GUNNISON       CLEAR     43  34  70 CALM      30.40R
KREMMLING      CLEAR     41  36  81 CALM      30.37R
LEADVILLE      CLEAR     34  29  82 CALM      30.48S
MONARCH PASS   CLEAR     43  30  61 W12       30.72S
SALIDA         CLEAR     54  34  47 NW6       30.42S
SUNLIGHT       CLEAR     54  32  43 CALM      30.55S
WILKERSON PASS NOT AVBL
$$

COZ069>075-151000-
...SAN LUIS VALLEY/SANGRE DE CRISTO MOUNTAINS...

CITY           SKY/WX    TMP DP  RH WIND       PRES   REMARKS
ALAMOSA        MOCLDY    48  42  80 CALM      30.33S
LA VETA PASS   NOT AVBL
SAGUACHE       NOT AVBL
$$

COZ035-036-038>040-151000-
...NORTHERN COLORADO FRONT RANGE...

CITY           SKY/WX    TMP DP  RH WIND       PRES   REMARKS
DENVER INTL AP PTCLDY    50  46  86 NW7       30.25R
DMNS CITY PARK   N/A     54  47  76 N5        30.26R
AURORA         NOT AVBL
FRONT RANGE AP CLEAR     50  46  87 NW7       30.26R
ERIE MUNI ARPT CLEAR     53  47  80 CALM      30.25R
BOULDER MUN AP CLEAR     55  50  82 CALM      30.24R
CENTENNIAL     CLOUDY    53  48  83 N10       30.27R
BROOMFIELD     CLEAR     54  46  76 N8        30.27R
FORT COLLINS   PTCLDY    52  45  76 N7        30.24S
LONGMONT       PTCLDY    56  49  76 CALM      30.25R
$$

COZ041-046-047-076>085-087-088-151000-
...PIKES PEAK/PALMER DIVIDE AND SOUTHERN FOOTHILLS...

CITY           SKY/WX    TMP DP  RH WIND       PRES   REMARKS
COLO. SPRINGS  PTCLDY    59  35  40 N7        30.21S
A. F. ACADEMY  NOT AVBL
ELLICOTT       NOT AVBL
FALCON         CLEAR     56  34  42 N12       30.26S
FORT CARSON    NOT AVBL
LIMON          PTCLDY    51  50  96 N25G31    30.19R
MONUMENT HILL  CLEAR     46  45  93 NW9       30.29R
TRINIDAD       MOCLDY    63  50  62 W17       30.16R
$$

COZ042>045-048>051-090-091-151000-
...NORTHEAST COLORADO...

CITY           SKY/WX    TMP DP  RH WIND       PRES   REMARKS
GREELEY ARPT   PTCLDY    50  41  71 N6        30.23R
AKRON          FOG       51  50  96 N16       30.18R VSB 1
BURLINGTON     MOCLDY    62  55  77 N10       30.07R
WRAY           CLOUDY    57  57 100 N10       30.13R
STERLING       CLOUDY    54  52  94 NE12      30.18R
HOLYOKE        CLOUDY    55  52  88 N16G23    30.16R
FORT MORGAN    CLOUDY    51  46  82 N18       30.20R
$$

COZ086-089-092>099-151000-
...SOUTHEAST COLORADO...

CITY           SKY/WX    TMP DP  RH WIND       PRES   REMARKS
PUEBLO         CLEAR     63  37  38 SW6       30.10R
LA JUNTA       PTCLDY    63  53  70 CALM      30.04F
LAMAR          PTCLDY    54  51  90 SW5       30.02S
SPRINGFIELD      N/A     57  55  93 SW5       30.07S
$$



USA.gov is the U.S. government's official web portal to all federal, state and local government web resources and services.